Lapse_Rate
6.0 6.5 6.5 6.5 6.5 6.5 6.5 6.5 6.5 6.5 6.5 6.5 6.5 6.5 6.5 6.7 6.8 6.8 7.0 6.8 6.3 6.1 6.0 5.8 4.5 4.5 3.8 3.6 4.1 4.0 3.8 3.7 3.4 3.0 3.2 3.2 3.1 3.1 3.0 2.9 3.3 4.1 4.7 5.0
6.5 6.5 6.5 6.5 6.5 6.5 6.5 6.5 6.5 6.5 6.5 6.5 6.5 6.5 6.5 6.5 6.6 6.5 6.4 6.5 5.7 4.7 4.3 4.8 4.7 3.7 3.2 3.4 4.1 4.2 3.8 4.0 3.5 3.5 3.6 4.0 3.8 3.7 4.3 4.8 4.1 4.3 5.1 5.1
6.5 6.5 6.5 6.5 6.5 6.5 6.5 6.5 6.5 6.5 6.5 6.5 6.5 6.5 6.5 6.5 6.6 6.1 6.5 7.0 5.5 4.7 4.5 3.9 4.1 3.6 3.3 2.9 3.9 4.2 4.1 3.7 3.6 3.6 3.7 4.0 4.3 4.3 5.4 4.7 4.0 3.2 3.8 4.9
6.5 6.5 6.5 6.5 6.5 6.5 6.5 6.5 6.5 6.5 6.5 6.5 6.5 6.5 6.5 6.5 6.5 6.5 7.0 7.0 5.5 5.0 4.3 3.7 3.8 4.6 4.6 3.7 3.9 4.5 4.2 4.6 3.9 3.5 3.5 3.7 4.4 6.6 6.1 6.1 5.7 5.5 5.8 6.0
6.5 6.5 6.5 6.5 6.5 6.5 6.5 6.5 6.5 6.5 6.5 6.5 6.5 6.5 6.5 6.5 6.5 6.5 6.6 6.9 7.2 6.8 5.2 5.2 5.1 5.8 5.9 5.6 5.1 5.0 4.6 4.1 3.8 3.9 3.9 5.3 5.9 5.1 5.5 5.7 5.1 4.5 5.4 6.8
6.5 6.4 6.5 6.5 6.5 6.5 6.5 6.5 6.5 6.5 6.5 6.5 6.5 6.5 6.5 6.5 6.5 6.5 6.6 7.0 6.8 6.6 6.4 6.0 6.1 5.5 4.5 3.9 2.9 3.2 3.5 3.7 4.1 4.6 5.6 4.9 5.1 5.7 5.6 4.7 5.1 4.7 5.2 5.5
6.5 6.5 6.5 6.5 6.5 6.5 6.5 6.5 6.5 6.5 6.5 6.5 6.5 6.5 6.5 6.5 6.5 6.5 6.6 6.8 6.9 7.0 5.5 5.3 4.9 4.9 3.7 3.3 2.1 2.1 2.8 3.0 3.9 4.7 4.8 4.9 5.3 6.0 5.7 4.9 4.4 4.2 4.4 4.2
6.5 6.5 6.5 6.5 6.5 6.5 6.5 6.5 6.5 6.5 6.5 6.5 6.5 6.5 6.5 6.5 6.8 7.0 6.9 7.0 7.0 6.9 6.2 5.3 4.4 4.9 4.9 4.1 3.8 2.8 2.8 3.7 3.7 4.2 5.5 5.6 5.7 5.0 4.8 4.7 5.0 4.8 4.4 4.5
6.5 6.5 6.5 6.5 6.5 6.5 6.5 6.5 6.5 6.5 6.5 6.5 6.5 6.5 6.5 6.5 6.5 6.7 7.0 7.0 6.9 7.0 4.6 4.1 4.0 5.2 2.1 2.8 4.9 4.1 2.7 2.2 1.9 2.0 2.1 1.1 1.1 2.1 3.9 3.9 4.5 5.0 4.7 4.7
6.5 6.5 6.5 6.5 6.5 6.4 6.5 6.5 6.5 6.5 6.5 6.5 6.5 6.5 6.5 6.5 6.5 6.5 6.6 7.0 7.0 5.4 4.1 4.0 4.9 5.4 5.8 5.3 5.3 2.9 3.4 2.2 1.8 1.6 0.9 0.7 0.1 0.5 1.1 1.3 1.3 2.1 2.3 2.8
6.5 6.5 6.5 6.5 6.5 6.5 6.5 6.5 6.5 6.5 6.5 6.5 6.5 6.5 6.5 6.5 6.5 6.5 6.6 6.9 7.0 6.9 6.2 5.1 4.9 5.5 5.1 4.5 4.1 4.4 4.2 4.2 1.9 1.7 1.2 1.0 0.9 0.7 1.1 0.9 1.4 1.2 1.7 1.7
6.5 6.5 6.5 6.5 6.5 6.5 6.5 6.5 6.5 6.5 6.5 6.5 6.5 6.5 6.5 6.5 6.6 6.7 6.7 6.8 6.4 6.0 6.1 5.6 4.5 3.9 3.9 4.2 4.1 3.8 2.8 2.0 2.2 2.1 1.3 1.2 1.1 1.5 1.3 0.9 0.1 0.7 0.9 1.2
6.5 6.5 6.5 6.5 6.5 6.5 6.5 6.5 6.5 6.5 6.5 6.5 6.5 6.5 6.5 6.6 6.5 6.4 6.2 5.6 5.4 5.3 5.4 4.9 4.3 3.8 3.5 3.0 2.1 2.3 2.2 2.1 1.6 1.4 1.2 0.6 0.1 -0.3 -0.3 -0.2 -0.4 -0.5 -0.3 -0.0
6.1 6.5 6.5 6.5 6.5 6.5 6.5 6.5 6.5 6.5 6.5 6.5 6.5 6.5 6.5 6.5 6.5 6.3 5.5 5.0 5.1 4.7 4.3 4.5 3.9 3.3 3.2 3.0 2.5 1.7 1.5 1.0 0.8 0.5 -0.1 -0.5 -0.7 -0.5 -0.5 -0.5 -0.5 -0.6 -0.6 -0.8
6.5 6.5 6.5 6.5 6.5 6.5 6.5 6.5 6.5 6.5 6.5 6.5 6.5 6.5 6.5 6.5 6.5 5.6 4.4 4.6 4.8 4.7 4.2 3.3 3.0 2.4 1.7 1.3 1.4 1.6 1.4 0.9 1.1 0.5 -0.0 -0.4 -0.3 -0.2 -0.2 -0.0 0.0 -0.0 -0.0 0.1
6.4 6.5 6.5 6.5 6.5 6.5 6.5 6.5 6.5 6.5 6.5 6.5 6.5 6.5 6.5 5.4 4.8 5.0 4.7 4.5 4.5 4.4 4.2 3.2 2.5 1.7 1.4 1.2 1.3 1.1 0.5 0.4 0.8 0.8 0.8 1.1 0.9 0.5 0.3 0.2 0.2 0.2 -0.1 -0.2
6.5 6.5 6.5 6.5 6.5 6.5 6.5 6.5 6.5 6.5 6.5 6.5 6.5 6.5 6.5 6.5 6.4 5.4 4.2 4.0 3.9 3.8 4.0 3.4 1.9 1.6 1.6 1.4 1.0 0.8 0.5 0.7 1.1 1.0 0.8 0.7 0.8 0.8 1.1 1.3 1.5 1.2 1.2 1.3
6.5 6.5 6.5 6.5 6.5 6.5 6.5 6.5 6.5 6.5 6.5 6.5 6.5 6.5 6.3 5.8 3.9 3.4 2.9 3.2 2.8 3.0 3.2 2.8 1.9 1.7 1.5 1.5 1.5 0.8 1.3 1.7 1.5 1.3 1.2 1.3 1.3 1.1 1.2 1.1 1.1 1.0 1.3 1.6
6.1 6.5 6.5 6.5 6.5 6.5 6.5 6.5 6.5 6.5 6.5 6.5 6.5 6.5 5.7 5.2 5.4 4.6 2.3 2.1 2.5 2.1 2.5 1.7 1.1 1.4 1.7 1.8 1.5 1.2 1.2 1.2 1.3 1.1 0.9 0.9 0.7 0.7 0.6 0.3 0.2 0.6 0.6 0.9
6.5 6.5 6.5 6.5 6.5 6.5 6.5 6.5 5.7 6.4 6.5 6.4 5.8 6.4 6.1 5.2 6.5 6.5 0.8 1.3 1.5 1.5 1.2 0.8 1.1 1.4 2.0 2.1 1.5 1.0 1.3 1.0 0.8 0.9 1.1 1.3 1.3 1.1 1.4 1.6 1.6 2.0 2.2 2.2
6.5 6.5 6.5 6.5 6.5 6.5 6.5 6.1 4.8 6.5 6.5 5.6 4.7 4.4 4.4 6.5 4.9 2.4 -1.0 0.7 1.1 1.0 0.7 0.9 1.3 2.1 2.2 1.5 1.0 1.1 0.8 0.5 0.7 1.1 1.3 1.4 1.6 1.7 1.8 1.7 2.2 2.4 2.4 2.5
6.5 6.5 6.5 6.5 6.5 6.5 5.1 6.2 6.5 5.9 3.6 4.1 3.2 2.4 3.0 2.3 1.4 0.7 0.0 0.5 0.4 0.7 0.7 0.9 1.2 1.4 1.3 0.5 0.2 0.8 0.6 0.7 0.8 1.1 1.2 0.8 1.2 2.0 2.2 2.3 2.4 2.7 3.6 3.7
6.5 6.5 6.5 6.5 6.5 5.7 3.4 4.9 2.9 2.6 3.8 3.8 2.6 1.3 0.9 1.3 1.1 0.5 0.4 0.2 0.4 0.5 0.8 0.9 0.8 0.9 0.7 0.3 0.5 1.4 0.9 0.2 0.7 0.4 -0.1 0.2 1.1 2.2 2.5 2.5 2.8 3.5 5.2 7.6
6.5 5.1 6.5 6.5 6.5 6.1 4.0 2.8 1.2 0.7 1.3 1.9 2.1 2.3 0.4 0.9 0.1 0.5 0.3 0.2 0.1 -0.2 -0.2 0.0 0.0 0.4 1.0 0.4 0.7 0.4 -0.2 -0.2 -0.0 -0.1 0.1 1.1 1.6 2.4 3.1 4.9 7.4 8.0 7.7 8.2
5.8 6.0 6.5 6.5 6.2 4.4 2.6 1.3 1.7 1.1 0.2 0.5 1.2 2.1 1.9 0.3 0.3 0.0 -0.2 -0.3 -0.4 -0.3 -0.4 -0.4 0.0 0.4 0.5 -0.3 -0.4 -0.8 -0.9 -0.9 0.0 0.7 1.5 2.1 3.3 5.4 7.3 8.1 8.1 7.9 8.0 8.2
5.0 6.5 6.5 6.5 4.6 4.5 3.6 3.5 3.4 2.6 2.4 1.2 0.9 0.9 -0.2 0.6 0.9 -0.6 -0.4 -0.4 -0.5 -0.9 -1.1 -0.9 -0.6 0.3 0.2 -0.1 -0.1 -0.3 -0.2 0.6 1.2 2.1 2.6 3.4 5.5 7.3 7.5 7.8 5.1 6.8 7.4 7.0
Wind_Speed
4 5 0 3 2 1 1 2 9 11 10 6 14 16 23 19 15 15 13 14 15 17 16 12 13 13 12 9 10 10 10 11 7 4 4 6 8 7 7 8 14 16 17 19
4 0 3 2 2 1 1 7 9 12 4 6 13 19 20 14 8 6 8 12 14 12 12 12 12 11 12 12 9 10 12 10 9 7 5 4 4 6 8 7 11 17 20 20
3 2 3 2 2 7 9 9 8 10 7 11 11 8 4 2 4 6 10 13 12 13 13 12 11 11 10 10 11 10 12 11 9 10 7 6 6 4 6 7 7 10 18 20
2 2 1 2 5 6 6 7 13 11 7 4 2 6 2 11 9 13 17 16 14 15 12 9 9 9 9 9 7 8 7 8 8 10 8 10 8 8 5 7 9 11 17 17
4 2 3 3 5 8 8 1 7 8 9 6 1 4 3 13 13 19 21 14 13 13 9 7 4 3 7 8 6 5 4 6 6 5 8 7 9 5 7 8 14 15 15 18
7 3 3 4 4 11 9 10 9 8 3 3 3 4 2 7 8 12 18 13 12 13 14 15 12 10 11 11 12 9 6 8 8 7 7 8 8 7 7 8 9 9 7 8
4 3 3 2 4 2 5 4 3 2 1 4 4 3 5 7 11 8 15 13 14 14 16 15 17 15 14 14 15 13 11 7 7 7 7 8 8 6 3 3 3 7 4 3
4 6 4 6 5 3 2 1 1 4 3 4 2 4 3 10 9 11 13 11 15 15 13 14 13 14 10 12 17 14 14 10 10 6 5 7 6 3 1 3 3 3 4 3
3 5 2 5 3 2 2 2 2 4 2 3 3 1 3 13 11 11 13 16 14 15 16 15 15 12 17 16 13 14 13 12 13 13 11 13 11 12 8 9 7 4 4 3
1 6 4 3 2 4 3 3 2 1 4 4 2 2 5 10 10 8 9 11 11 13 13 10 10 10 9 8 9 13 14 14 12 11 11 11 11 11 11 10 12 12 11 12
2 2 5 2 2 0 1 1 2 1 2 2 3 2 4 3 5 6 4 1 5 7 8 9 10 10 10 11 12 10 9 9 11 13 11 11 10 11 10 10 9 9 9 9
4 3 5 7 3 2 2 3 3 2 2 1 1 4 6 6 2 2 2 3 4 4 4 5 7 10 10 10 10 11 11 14 12 11 12 12 11 9 9 10 11 12 10 11
3 2 5 7 4 2 2 2 2 1 2 3 1 4 1 3 3 4 2 2 3 3 4 4 5 7 8 10 11 11 11 10 10 11 11 12 12 12 12 11 11 11 11 11
4 3 6 5 6 2 5 3 3 2 2 2 5 5 5 5 5 4 4 4 4 2 3 3 3 3 4 6 7 9 10 11 11 11 10 11 12 11 10 10 11 11 11 12
4 4 4 7 12 6 8 10 6 6 5 5 4 5 6 8 8 7 5 4 4 4 3 3 3 4 6 8 8 7 7 8 8 10 11 11 10 10 11 11 11 11 11 10
1 3 2 5 3 5 7 10 9 6 4 7 5 7 10 4 5 5 8 7 6 6 4 2 2 3 5 4 5 5 7 8 8 8 8 7 7 7 9 9 9 9 10 11
0 2 4 5 2 7 6 6 7 5 4 6 6 8 4 5 8 9 8 8 8 7 4 2 1 1 2 3 3 4 5 4 5 5 6 6 6 6 7 7 6 8 8 7
2 1 2 4 7 4 4 1 3 6 6 9 6 5 6 5 5 5 7 8 8 7 6 5 4 2 1 2 4 5 4 3 4 4 4 5 5 5 6 6 7 7 7 8
6 3 2 2 2 8 1 3 5 5 6 7 12 7 5 1 1 5 7 6 6 6 5 4 4 2 1 2 3 3 3 3 4 4 4 5 7 7 8 10 11 10 11 11
4 2 2 2 2 5 4 3 4 3 4 4 6 8 7 6 2 4 5 7 6 6 4 5 4 2 0 3 3 3 4 3 3 5 5 5 7 8 8 9 9 9 9 10
3 2 5 4 4 8 5 4 5 2 5 4 3 5 8 6 5 2 6 5 5 5 6 5 3 2 4 4 3 4 3 3 4 4 4 4 5 5 7 9 8 10 10 11
7 6 4 3 4 8 6 4 6 4 1 2 2 5 8 5 4 4 6 7 6 6 6 5 4 4 5 5 4 3 3 3 4 3 3 5 7 7 8 10 10 11 11 12
3 6 4 9 6 4 7 5 4 1 3 4 3 4 7 8 7 7 7 7 7 7 6 5 6 6 5 4 4 4 2 2 2 4 7 9 9 9 10 11 11 9 10 9
5 4 4 2 4 7 11 10 6 6 8 5 6 5 7 8 9 8 6 7 7 6 7 5 6 5 5 4 4 4 2 0 4 6 6 7 9 11 10 7 7 7 8 9
5 6 5 7 10 11 10 9 10 9 6 7 7 7 10 8 7 9 9 8 8 8 6 5 6 5 5 4 4 2 1 4 6 6 7 8 7 7 7 7 6 8 10 10
8 8 6 8 8 6 7 2 2 5 5 7 7 7 10 10 12 8 8 8 7 7 5 6 6 5 4 3 2 1 2 3 2 3 4 5 5 5 6 7 8 14 18 21
Wind_Direction
8 55 235 226 203 81 100 263 277 273 270 298 272 279 281 295 287 276 281 292 289 276 275 250 248 254 260 227 224 233 229 230 204 197 220 240 240 239 243 244 248 245 242 239
19 124 211 164 142 214 211 285 291 291 279 204 277 287 292 292 278 282 292 303 303 289 274 264 251 244 249 252 231 228 226 219 205 199 202 203 210 236 240 235 239 240 244 234
156 262 123 192 254 290 282 255 260 241 316 273 274 264 273 290 297 283 303 305 291 275 278 272 262 245 250 241 243 230 223 216 203 206 219 230 236 247 239 239 241 236 233 237
241 322 211 249 265 223 280 218 245 271 294 309 4 297 342 343 320 339 326 313 306 306 295 280 279 282 278 266 250 242 231 222 205 195 213 232 230 240 236 248 254 251 245 237
267 259 252 272 244 165 240 267 270 262 265 288 187 263 287 353 340 335 322 310 337 344 348 325 355 53 57 47 27 356 303 278 267 203 212 217 227 238 253 258 262 257 251 240
252 204 247 236 277 229 263 307 279 256 258 253 206 199 324 4 324 313 327 345 5 31 41 43 39 45 42 37 23 352 291 252 247 220 214 218 234 257 273 278 275 264 245 238
306 219 249 203 291 221 233 273 318 343 333 241 185 162 280 339 348 329 325 21 23 37 40 38 30 19 23 24 13 351 321 258 232 213 222 227 226 238 267 8 58 52 28 20
356 326 195 168 220 234 214 273 315 295 313 303 182 309 14 3 7 358 1 18 38 34 44 34 32 14 2 29 11 1 25 53 52 55 225 209 201 215 83 344 47 46 59 27
335 274 283 194 193 196 250 283 210 274 259 287 304 300 147 2 4 14 15 24 27 25 34 11 27 1 23 22 352 10 27 42 49 48 52 47 42 31 28 21 21 17 25 22
238 289 239 299 155 239 228 277 334 1 346 318 349 357 344 341 348 26 11 23 18 22 28 357 12 6 20 18 11 21 16 29 39 45 52 50 46 42 35 35 29 27 24 17
201 192 285 317 189 182 318 353 312 332 173 299 312 332 232 259 319 11 46 346 359 43 32 0 356 18 17 23 21 42 27 36 38 40 46 47 42 41 33 35 24 26 26 18
206 184 271 238 223 203 245 190 151 131 306 262 258 265 183 216 232 347 31 17 47 49 47 39 4 359 16 26 31 34 23 38 37 42 45 44 42 37 35 29 25 22 20 20
183 268 318 351 7 9 199 189 207 128 80 232 182 268 210 245 161 138 212 294 327 13 49 39 29 14 14 15 13 26 29 35 42 46 50 43 35 31 27 24 22 22 20 18
157 198 197 206 231 198 281 232 170 189 153 201 230 290 256 246 241 215 203 227 260 312 17 34 32 21 13 22 23 18 22 23 26 35 36 35 28 24 19 18 18 17 12 10
163 254 196 252 253 239 248 255 213 188 224 186 202 223 242 218 210 218 223 234 270 298 332 8 25 18 15 15 18 24 30 31 26 32 32 27 19 14 11 9 11 8 7 2
5 270 326 275 253 201 261 239 227 222 215 250 262 270 219 222 183 188 208 210 231 244 256 11 18 24 22 18 14 13 18 16 21 26 26 12 7 4 1 1 360 356 354 353
295 344 1 273 320 297 289 233 187 200 195 164 192 231 164 202 213 214 213 205 215 224 218 172 123 40 341 351 359 8 356 355 8 6 5 359 351 348 341 332 336 343 341 326
223 3 171 279 334 353 253 135 191 225 238 221 266 229 205 227 233 228 213 205 216 209 199 177 181 202 259 346 358 349 340 335 335 333 326 323 324 333 329 342 350 344 339 337
193 137 257 293 278 288 224 209 185 178 285 212 227 221 211 143 97 272 214 204 206 194 184 185 180 175 93 338 319 304 305 302 296 310 335 343 341 344 355 2 358 353 346 344
95 30 168 170 237 245 232 197 180 145 295 205 203 231 171 146 196 250 182 172 181 171 156 170 177 130 274 287 292 273 273 278 330 347 343 338 339 347 353 350 350 344 339 329
166 178 199 225 274 286 235 164 150 127 228 192 211 210 162 190 205 205 143 158 167 172 172 154 140 193 237 255 253 243 261 325 308 304 312 327 331 336 351 350 351 345 336 331
176 159 201 145 210 280 149 78 180 218 166 224 229 205 196 209 173 164 181 173 172 170 163 164 178 213 227 226 212 238 248 271 271 294 332 360 360 359 358 347 343 341 335 332
253 200 188 192 216 241 213 228 241 197 230 218 216 225 209 199 203 188 196 191 193 188 181 179 191 208 213 214 211 217 236 262 317 6 12 6 356 357 1 347 339 332 329 318
240 177 231 340 282 234 236 251 242 218 231 234 228 220 192 209 200 204 200 196 192 188 190 184 188 206 209 216 219 221 224 5 38 23 4 2 1 351 343 327 319 310 312 311
211 141 207 258 278 280 265 237 250 269 255 245 240 219 219 213 218 197 195 195 194 188 184 182 192 201 209 208 216 218 83 49 35 18 7 360 343 335 315 315 311 310 307 309
188 207 197 239 216 206 257 243 193 242 249 243 235 251 233 204 217 186 197 190 185 188 178 185 194 193 202 212 225 215 166 135 111 27 8 344 331 323 314 310 314 308 313 315